User: anonymous   Login
Location: *
(46.4000°N, 12.6667°E)
Time: 15:26:31
(UTC+00:00)
Language:

Cosmos 1461 - Orbit

View from above orbital plane
View from above orbital plane
View from above satellite
View from above satellite

Ground track
Ground track

The orbit data is extracted from the following two-line orbital elements,

1 14064U 83044A   21162.85454185  .00000200  00000-0  31052-4 0  9993
2 14064  65.0006  95.2840 0104224 198.4420 161.2909 14.95213337940877
Epoch (UTC): 11 June 2021 20:30:32
Eccentricity: 0.0104224
inclination: 65.0006°
perigee height: 509 km
apogee height: 654 km
right ascension of ascending node: 95.2840°
argument of perigee: 198.4420°
revolutions per day: 14.95213337
mean anomaly at epoch: 161.2909°
orbit number at epoch: 94087

The dashed part of the orbit path shows where the satellite is in the earth's shadow,  

DLR